• In Russia
  • List of Countries
  • For 7 days
  • Water Temperature
  • Satellite Maps
  • Weather Map
  • Weather Widgets
  • user-avatar
    Login

    Hourly Weather Lozenec

    Today, 22 November, Wednesday

    Time Temperature Precipitation Wind Pressure Humidity
    00:00 +4°C° 0 mm 4 mps 761 mmHg 71%
    01:00 +4°C° 0 mm 4 mps 761 mmHg 71%
    02:00 +4°C° 0 mm 4 mps 760 mmHg 72%
    03:00 +4°C° 0 mm 4 mps 760 mmHg 73%
    04:00 +4°C° 0 mm 4 mps 760 mmHg 74%
    05:00 +4°C° 0 mm 4 mps 760 mmHg 74%
    06:00 +4°C° 0 mm 4 mps 760 mmHg 74%
    07:00 +4°C° 0 mm 4 mps 760 mmHg 73%
    08:00 +5°C° 0 mm 4 mps 760 mmHg 73%
    09:00 +6°C° 0 mm 5 mps 760 mmHg 68%
    10:00 +8°C° 0 mm 5 mps 760 mmHg 63%
    11:00 +9°C° 0 mm 5 mps 760 mmHg 58%
    12:00 +10°C° 0 mm 5 mps 760 mmHg 56%
    13:00 +12°C° 0 mm 5 mps 760 mmHg 54%
    14:00 +10°C° 0 mm 5 mps 759 mmHg 56%
    15:00 +10°C° 0 mm 5 mps 759 mmHg 59%
    16:00 +10°C° 0 mm 4 mps 759 mmHg 63%
    17:00 +8°C° 0 mm 4 mps 759 mmHg 66%
    18:00 +9°C° 0 mm 3 mps 759 mmHg 67%
    19:00 +9°C° 0 mm 3 mps 759 mmHg 67%
    20:00 +9°C° 0 mm 3 mps 760 mmHg 68%
    21:00 +9°C° 0 mm 3 mps 760 mmHg 68%
    22:00 +9°C° 0 mm 3 mps 760 mmHg 69%
    23:00 +9°C° 0 mm 3 mps 760 mmHg 70%

    Tomorrow, 23 November, Thursday

    Time Temperature Precipitation Wind Pressure Humidity
    00:00 +9°C° 0.1 mm 3 mps 760 mmHg 70%
    01:00 +8°C° 0.1 mm 2 mps 760 mmHg 71%
    02:00 +8°C° 0.1 mm 2 mps 761 mmHg 71%
    03:00 +8°C° 0 mm 2 mps 761 mmHg 72%
    04:00 +8°C° 0 mm 2 mps 761 mmHg 72%
    05:00 +8°C° 0 mm 1 mps 761 mmHg 72%
    06:00 +8°C° 0 mm 1 mps 761 mmHg 72%
    07:00 +9°C° 0 mm 1 mps 762 mmHg 72%
    08:00 +9°C° 0 mm 1 mps 762 mmHg 71%
    09:00 +10°C° 0 mm 1 mps 762 mmHg 66%
    10:00 +12°C° 0 mm 1 mps 763 mmHg 61%
    11:00 +14°C° 0 mm 1 mps 763 mmHg 55%
    12:00 +14°C° 0 mm 1 mps 763 mmHg 54%
    13:00 +15°C° 0 mm 1 mps 763 mmHg 54%
    14:00 +15°C° 0 mm 1 mps 762 mmHg 53%
    15:00 +14°C° 0 mm 1 mps 762 mmHg 59%
    16:00 +13°C° 0 mm 1 mps 763 mmHg 64%
    17:00 +12°C° 0 mm 1 mps 763 mmHg 70%
    18:00 +11°C° 0 mm 1 mps 763 mmHg 73%
    19:00 +11°C° 0 mm 1 mps 763 mmHg 76%
    20:00 +10°C° 0 mm 1 mps 763 mmHg 79%
    21:00 +10°C° 0 mm 1 mps 763 mmHg 80%
    22:00 +10°C° 0 mm 1 mps 763 mmHg 81%
    23:00 +9°C° 0 mm 1 mps 764 mmHg 82%

    Day after tomorrow, 24 November, Friday

    Time Temperature Precipitation Wind Pressure Humidity
    00:00 +9°C° 0 mm 1 mps 764 mmHg 82%
    01:00 +9°C° 0 mm 1 mps 764 mmHg 81%
    02:00 +9°C° 0 mm 1 mps 764 mmHg 81%
    03:00 +9°C° 0 mm 1 mps 764 mmHg 81%
    04:00 +9°C° 0 mm 1 mps 763 mmHg 81%
    05:00 +9°C° 0 mm 1 mps 763 mmHg 81%
    06:00 +9°C° 0 mm 1 mps 764 mmHg 80%
    07:00 +9°C° 0 mm 1 mps 764 mmHg 80%
    08:00 +9°C° 0 mm 1 mps 764 mmHg 79%
    09:00 +11°C° 0 mm 1 mps 764 mmHg 74%
    10:00 +12°C° 0 mm 1 mps 764 mmHg 68%
    11:00 +14°C° 0 mm 2 mps 764 mmHg 63%
    12:00 +15°C° 0 mm 2 mps 764 mmHg 61%
    13:00 +15°C° 0 mm 2 mps 764 mmHg 60%
    14:00 +16°C° 0 mm 2 mps 764 mmHg 59%
    15:00 +15°C° 0 mm 2 mps 764 mmHg 65%
    16:00 +12°C° 0 mm 3 mps 764 mmHg 70%
    17:00 +11°C° 0 mm 3 mps 764 mmHg 76%
    18:00 +11°C° 0 mm 3 mps 764 mmHg 80%
    19:00 +10°C° 0 mm 3 mps 764 mmHg 83%
    20:00 +10°C° 0 mm 3 mps 764 mmHg 86%
    21:00 +10°C° 0 mm 3 mps 764 mmHg 88%
    22:00 +9°C° 0 mm 3 mps 765 mmHg 89%
    23:00 +9°C° 0 mm 3 mps 765 mmHg 91%

    25 November, Saturday

    Time Temperature Precipitation Wind Pressure Humidity
    00:00 +9°C° 0 mm 3 mps 765 mmHg 91%
    01:00 +9°C° 0 mm 3 mps 765 mmHg 91%
    02:00 +8°C° 0 mm 2 mps 765 mmHg 91%
    03:00 +8°C° 0 mm 3 mps 765 mmHg 90%
    04:00 +8°C° 0 mm 3 mps 764 mmHg 90%
    05:00 +8°C° 0 mm 3 mps 764 mmHg 90%
    06:00 +8°C° 0 mm 3 mps 765 mmHg 90%
    07:00 +8°C° 0 mm 3 mps 765 mmHg 90%
    08:00 +8°C° 0 mm 3 mps 765 mmHg 90%
    09:00 +10°C° 0 mm 4 mps 765 mmHg 83%
    10:00 +12°C° 0 mm 4 mps 765 mmHg 76%
    11:00 +13°C° 0 mm 4 mps 765 mmHg 68%
    12:00 +14°C° 0 mm 4 mps 764 mmHg 66%
    13:00 +14°C° 0 mm 4 mps 764 mmHg 64%
    14:00 +14°C° 0 mm 4 mps 763 mmHg 62%
    15:00 +13°C° 0 mm 4 mps 763 mmHg 69%
    16:00 +12°C° 0 mm 4 mps 763 mmHg 75%
    17:00 +11°C° 0 mm 4 mps 763 mmHg 81%
    18:00 +10°C° 0 mm 3 mps 763 mmHg 84%
    19:00 +10°C° 0 mm 3 mps 763 mmHg 86%
    20:00 +9°C° 0 mm 3 mps 763 mmHg 88%
    21:00 +9°C° 0 mm 3 mps 763 mmHg 89%
    22:00 +9°C° 0 mm 2 mps 763 mmHg 89%
    23:00 +8°C° 0 mm 2 mps 763 mmHg 89%

    26 November, Sunday

    Time Temperature Precipitation Wind Pressure Humidity
    00:00 +9°C° 0 mm 1 mps 763 mmHg 89%
    01:00 +9°C° 0 mm 1 mps 763 mmHg 88%
    02:00 +9°C° 0 mm 1 mps 762 mmHg 88%
    03:00 +9°C° 0 mm 1 mps 762 mmHg 87%
    04:00 +9°C° 0 mm 1 mps 762 mmHg 86%
    05:00 +9°C° 0 mm 1 mps 762 mmHg 86%
    06:00 +9°C° 0 mm 1 mps 762 mmHg 85%
    07:00 +9°C° 0 mm 1 mps 762 mmHg 84%
    08:00 +9°C° 0 mm 1 mps 762 mmHg 83%
    09:00 +10°C° 0 mm 1 mps 762 mmHg 78%
    10:00 +12°C° 0 mm 1 mps 762 mmHg 72%
    11:00 +14°C° 0 mm 2 mps 761 mmHg 66%
    12:00 +14°C° 0 mm 2 mps 761 mmHg 65%
    13:00 +15°C° 0 mm 2 mps 761 mmHg 63%
    14:00 +15°C° 0 mm 2 mps 760 mmHg 62%
    15:00 +14°C° 0 mm 2 mps 760 mmHg 68%
    16:00 +13°C° 0 mm 2 mps 760 mmHg 74%
    17:00 +12°C° 0 mm 2 mps 760 mmHg 80%
    18:00 +12°C° 0 mm 2 mps 760 mmHg 82%
    19:00 +10°C° 0 mm 2 mps 760 mmHg 84%
    20:00 +10°C° 0 mm 3 mps 760 mmHg 87%
    21:00 +10°C° 0 mm 3 mps 760 mmHg 88%
    22:00 +10°C° 0 mm 3 mps 760 mmHg 89%
    23:00 +10°C° 0 mm 3 mps 759 mmHg 91%

    27 November, Monday

    Time Temperature Precipitation Wind Pressure Humidity
    00:00 +10°C° 0 mm 3 mps 759 mmHg 91%
    01:00 +10°C° 0 mm 3 mps 759 mmHg 92%
    02:00 +10°C° 0 mm 4 mps 758 mmHg 93%
    03:00 +10°C° 0 mm 4 mps 758 mmHg 92%
    04:00 +10°C° 0 mm 4 mps 758 mmHg 90%
    05:00 +10°C° 0 mm 4 mps 757 mmHg 89%
    06:00 +10°C° 0 mm 4 mps 757 mmHg 88%
    07:00 +10°C° 0 mm 5 mps 757 mmHg 87%
    08:00 +10°C° 0 mm 5 mps 757 mmHg 85%
    09:00 +12°C° 0.1 mm 5 mps 756 mmHg 83%
    10:00 +13°C° 0.1 mm 5 mps 756 mmHg 80%
    11:00 +13°C° 0.1 mm 6 mps 756 mmHg 78%
    12:00 +13°C° 0.5 mm 6 mps 755 mmHg 81%
    13:00 +13°C° 0.5 mm 5 mps 754 mmHg 84%
    14:00 +13°C° 0.5 mm 5 mps 754 mmHg 88%
    15:00 +12°C° 1.3 mm 5 mps 754 mmHg 89%
    16:00 +11°C° 1.3 mm 6 mps 753 mmHg 91%
    17:00 +10°C° 1.3 mm 6 mps 753 mmHg 92%
    18:00 +10°C° 1.7 mm 6 mps 753 mmHg 90%
    19:00 +9°C° 1.7 mm 7 mps 753 mmHg 88%
    20:00 +8°C° 1.7 mm 7 mps 753 mmHg 86%
    21:00 +6°C° 0.1 mm 7 mps 753 mmHg 85%
    22:00 +6°C° 0.1 mm 8 mps 753 mmHg 83%
    23:00 +5°C° 0.1 mm 8 mps 753 mmHg 81%
    Show more